Location: Balmoral
(33.0667°S, 151.5833°E)
Time: 10:58:28
(UTC+00:00)

Daily predictions for brighter satellites

Satellite Brightness Start Highest point End
(mag) Time Altitude Azimuth Time Altitude Azimuth Time Altitude Azimuth
SL-16 R/B 4.1 16:39:05 10° S 16:41:46 27° S 16:41:46 27° S
Cosmos 2333 Rocket 4.5 16:46:49 10° S 16:51:07 21° ESE 16:55:24 10° ENE
Cosmos 1727 Rocket 4.4 17:08:17 10° S 17:14:36 62° E 17:20:52 10° NNE
Lacrosse 5 rocket 3.9 17:16:20 17° ENE 17:16:20 17° ENE 17:18:41 10° E
USA 215 4.0 17:18:52 10° ENE 17:25:09 50° SE 17:31:26 10° SSW
SL-08 R/B 4.4 17:29:10 76° SW 17:29:10 76° SW 17:35:18 10° S
OAO 3 Copernicus 4.4 17:39:35 71° SSE 17:39:35 71° SSE 17:44:26 10° E
ADEOS 3.7 17:46:18 60° SW 17:46:18 60° SW 17:50:41 10° SSW
Geosat 3.8 17:47:15 10° SSE 17:52:19 71° WSW 17:52:32 70° W
SL-24 R/B 4.2 17:49:38 10° SSE 17:54:40 84° ENE 17:55:43 53° N
Cosmos 968 Rocket 3.3 17:55:44 66° WNW 17:56:10 70° WSW 18:01:23 10° SSE
Cosmos 1862 Rocket 4.0 17:54:06 10° S 17:58:38 62° E 18:03:04 10° NNE
CZ-2C R/B 3.3 18:05:06 16° NNE 18:06:05 17° NNE 18:08:44 10° ENE
Cosmos 1633 Rocket 4.2 18:09:30 29° SW 18:09:30 29° SW 18:12:10 10° S
CZ-4B R/B 3.2 18:04:45 10° NNE 18:08:23 60° ESE 18:12:15 10° S
CZ-4B R/B 4.0 18:04:33 10° N 18:09:02 72° WNW 18:13:28 10° SSW
Cosmos 2297 Rocket 2.7 18:03:38 10° N 18:09:10 59° ENE 18:14:46 10° SSE
H-2A R/B 3.5 18:05:34 10° SSE 18:09:26 37° E 18:13:19 10° NNE
Cosmos 1933 Rocket 3.6 18:07:58 12° N 18:12:00 78° E 18:16:26 10° S
ALOS 2.4 18:13:25 10° N 18:17:58 51° W 18:22:35 10° SSW
Cosmos 1437 Rocket 2.9 18:14:28 10° S 18:18:24 72° E 18:22:13 10° NNE
Meteor 1-25 Rocket 4.2 18:18:46 17° NNW 18:23:03 56° W 18:28:35 10° S
SeaSat 1 3.7 18:18:55 10° NE 18:23:33 42° ESE 18:28:14 10° S
COSMOS 2428 2.6 18:19:30 10° SSW 18:25:14 77° WNW 18:30:55 10° NNE
ERS-2 4.3 18:22:25 10° SE 18:25:39 28° E 18:28:52 10° NNE
Cosmos 1354 Rocket 3.9 18:21:50 16° NNW 18:26:00 71° WSW 18:31:20 10° SSE
Cosmos 1356 4.2 18:24:39 10° N 18:28:02 53° E 18:31:26 10° SSE
Cosmos 2219 Rocket 2.2 18:24:39 10° SSW 18:30:11 59° WNW 18:35:42 10° N
USA 281 3.2 18:27:01 10° N 18:33:29 60° WNW 18:40:02 10° SSW
ATLAS CENTAUR R/B 1.5 18:31:20 26° NW 18:33:41 64° WSW 18:38:16 10° SSE
Cosmos 2333 Rocket 2.4 18:30:05 10° SSW 18:35:34 47° WNW 18:41:02 10° N
METEOR-M 4.5 18:31:00 10° N 18:36:02 42° W 18:41:08 10° SSW
FENGYUN 3A 4.3 18:33:05 10° NNW 18:37:57 33° W 18:42:53 10° SSW
Meteor 1-14 Rocket 4.1 18:32:45 10° NNW 18:38:19 77° W 18:44:02 10° S
Cosmos 1503 Rocket 4.3 18:35:56 18° NW 18:39:29 44° WSW 18:44:35 10° S
Cosmos 2237 Rocket 3.2 18:34:16 10° S 18:39:51 50° ESE 18:45:22 10° NE
Landsat 5 3.5 18:35:35 10° S 18:39:51 81° WSW 18:44:14 10° NNW
Cosmos 1980 4.5 18:35:15 10° S 18:40:50 55° ESE 18:46:22 10° NE
NOSS 3-1 (C) 4.2 18:32:31 10° NW 18:41:25 68° WSW 18:49:29 10° SSE
DELTA 2 R/B (1) 4.2 18:38:57 20° WSW 18:42:36 46° S 18:48:03 10° ESE
NOSS 0 Rocket 4.0 18:40:43 10° SSW 18:46:56 88° ESE 18:53:07 10° NNE
Abrixas rocket 2.4 18:46:34 30° W 18:47:36 44° SW 18:50:26 10° SE
Cosmos 1515 3.6 18:46:35 10° S 18:50:29 82° W 18:54:19 10° N
Cosmos 1934 Rocket 4.3 18:44:49 10° NNW 18:50:40 43° W 18:56:41 10° S
SEDSat Delta rocket 3.4 18:47:55 20° W 18:51:24 74° N 18:57:04 10° E
Cosmos 1607 3.9 18:45:59 10° SSW 18:52:07 87° ESE 18:58:12 10° NNE
GPS 2-04 Rocket1 2.4 18:50:07 20° WSW 18:52:21 71° SSE 18:55:46 10° E
Cosmos 1703 Rocket 3.6 18:49:25 10° S 18:53:54 89° E 18:58:15 10° N
Lacrosse 5 rocket 1.8 18:52:01 18° WNW 18:54:52 43° SW 18:58:45 10° SSE
Cosmos 2242 Rocket 3.6 18:50:40 10° SSW 18:55:11 64° W 18:59:35 10° N
Meteor 1-31 Rocket 4.2 18:55:33 17° W 18:55:36 17° W 18:58:17 10° SW
MOS 1-B 4.4 18:52:27 10° NNE 18:58:15 88° ESE 19:04:09 10° SSW
Meteor 1-5 Rocket 4.3 18:54:41 10° N 19:00:21 87° E 19:06:16 10° S
SJ-7 4.4 18:59:17 10° N 19:03:25 84° WNW 19:07:33 10° SSW
Cosmos 2227 Rocket 2.4 19:00:33 10° NW 19:06:03 52° WSW 19:11:38 10° S
USA 215 3.8 19:02:09 10° NNE 19:08:08 38° NW 19:14:12 10° WSW
CZ-4B R/B 1.8 19:05:30 10° SSE 19:08:36 61° E 19:11:38 10° N
Cosmos 1777 Rocket 4.0 19:07:06 10° NNW 19:12:17 70° WSW 19:17:33 10° SSE
Cosmos 1605 Rocket 4.3 19:06:58 10° NNW 19:13:01 46° W 19:19:05 10° S
ASTRO E2 3.9 19:10:21 11° W 19:13:40 29° NNW 19:17:11 10° NE
CZ-4B DEB 4.2 19:08:18 10° N 19:13:46 63° WNW 19:19:16 10° SSW
PSLV R/B 4.2 19:11:16 10° N 19:15:05 42° W 19:19:02 10° SSW
NOAA 6 4.1 19:13:07 10° N 19:18:16 67° WNW 19:23:29 10° SSW
Okean 3 4.2 19:15:07 10° S 19:19:23 60° E 19:23:37 10° NNE
Cosmos 2219 4.1 19:14:40 10° WNW 19:19:38 29° WSW 19:24:39 10° S
ARGOS Delta rocket 4.3 19:15:30 10° N 19:20:23 49° W 19:25:36 10° SSW
Gblst 52 Del rocket 4.4 19:15:27 10° WNW 19:21:31 63° SW 19:27:05 10° SE
Meteor 1-11 Rocket 3.8 19:17:46 10° N 19:23:20 89° E 19:28:56 10° S
Okean 1-7 3.4 19:19:31 10° SSW 19:23:43 43° W 19:27:50 10° NNW
SAR-Lupe-4 3.8 19:20:31 10° SSE 19:24:09 77° ENE 19:27:44 10° N
USA 32 4.3 19:20:06 10° NNW 19:25:11 49° W 19:30:20 10° S
PAYLOAD B 4.3 19:20:18 10° N 19:25:49 60° WNW 19:31:25 10° SSW
